Flag for Germany Weather past 2 weeks in Hanau, Hesse, Germany

Now
54 °F

Clear.


Feels Like: 54 °F
Forecast: 59 / 88 °F
Wind: 1 mph from North

Location: Frankfurt-M-Flughafen Airport

Current Time: Aug 2, 2015 at 7:06:21 AM

Latest Report: Aug 2, 2015 at 6:20 AM


Visibility: 10 mi

Pressure: 30.07 "Hg

Humidity: 88%

Dew point: 50 °F

Location of HanauLocation

Historic Weather in Hanau — Graph

°F

Hanau temperature yesterday

Maximum temperature yesterday: 82 °F (at 3:20 PM)
Minimum temperature yesterday: 59 °F (at 5:20 AM)
Average temperature yesterday: 69 °F

Past Weeks' High & Low Weather Summary

 TemperatureHumidityPressure
High91 °F (Jul 22, 2:50 PM)94% (Jul 18, 5:20 AM)30.12 "Hg (Jul 18, 5:20 AM)
Low45 °F (Jul 30, 4:50 AM)24% (Aug 1, 4:20 PM)29.62 "Hg (Jul 24, 11:20 PM)
Average69 °F59%29.90 "Hg
* Reported Jul 18 5:20 AM — Aug 2 5:50 AM, Hanau, Weather by CustomWeather, © 2015

Note: Actual official high and low records may vary slightly from our data, if they occured in-between our weather recording intervals... More about our weather records

Advertising

Hanau weather history for previous 24 hours

 ConditionsComfort  
Time TempWeatherWind HumidityBarometerVisibility
5:50 AM
Sun, Aug 2
54 °FClear.3 mph88%30.07 "Hg10 mi
5:20 AM55 °FClear.2 mph82%30.07 "Hg10 mi
4:50 AM55 °FClear.2 mph82%30.04 "Hg10 mi
4:20 AM55 °FClear.2 mph88%30.04 "Hg10 mi
3:50 AM57 °FClear.2 mph82%30.04 "Hg10 mi
3:20 AM57 °FClear.3 mph82%30.04 "Hg10 mi
2:50 AM59 °FClear.2 mph77%30.04 "Hg10 mi
2:20 AM61 °FClear.5 mph72%30.04 "Hg10 mi
1:50 AM59 °FClear.5 mph77%30.04 "Hg10 mi
1:20 AM59 °FClear.1 mph77%30.04 "Hg10 mi
12:50 AM61 °FClear.2 mph72%30.01 "Hg10 mi
11:20 PM
Sat, Aug 1
64 °FPassing clouds.3 mph64%30.01 "HgN/A
10:20 PM66 °FClear.5 mph56%29.98 "Hg10 mi
9:50 PM68 °FPassing clouds.3 mph53%29.98 "HgN/A
9:20 PM70 °FSunny.6 mph50%29.98 "Hg10 mi
8:50 PM72 °FSunny.5 mph47%29.95 "Hg10 mi
8:20 PM77 °FPassing clouds.5 mph34%29.95 "HgN/A
7:50 PM79 °FSunny.7 mph32%29.95 "Hg10 mi
7:20 PM79 °FSunny.9 mph30%29.92 "Hg10 mi
6:50 PM81 °FPassing clouds.10 mph28%29.92 "HgN/A
6:20 PM81 °FPassing clouds.10 mph26%29.92 "HgN/A
5:50 PM81 °FPassing clouds.9 mph26%29.92 "HgN/A
5:20 PM82 °FPassing clouds.8 mph25%29.92 "HgN/A
4:50 PM81 °FSunny.6 mph26%29.92 "Hg10 mi
4:20 PM81 °FPassing clouds.7 mph24%29.92 "HgN/A
3:50 PM81 °FSunny.5 mph26%29.92 "Hg10 mi
3:20 PM82 °FPassing clouds.6 mph26%29.92 "HgN/A
2:50 PM81 °FPassing clouds.7 mph26%29.92 "HgN/A
2:20 PM77 °FPassing clouds.7 mph30%29.95 "HgN/A
1:50 PM77 °FSunny.6 mph32%29.95 "Hg10 mi
1:20 PM75 °FSunny.5 mph31%29.95 "Hg10 mi
12:50 PM75 °FSunny.5 mph31%29.95 "Hg10 mi
12:20 PM72 °FSunny.6 mph36%29.95 "Hg10 mi
11:50 AM70 °FPassing clouds.8 mph40%29.98 "HgN/A
11:20 AM68 °FPassing clouds.7 mph43%29.98 "HgN/A
10:50 AM66 °FPassing clouds.8 mph43%29.98 "HgN/A
10:20 AM64 °FSunny.9 mph49%29.98 "Hg10 mi
9:50 AM64 °FPassing clouds.8 mph46%29.98 "HgN/A
9:20 AM63 °FSunny.10 mph49%29.98 "Hg10 mi
8:50 AM63 °FSunny.9 mph49%29.98 "Hg10 mi
8:20 AM61 °FPassing clouds.9 mph52%29.95 "HgN/A
7:50 AM61 °FSunny.10 mph52%29.95 "Hg10 mi
7:20 AM61 °FSunny.14 mph52%29.92 "Hg10 mi
Weather by CustomWeather, © 2015

See weather overviewHow to use our weather pages